QPF
0.00 0.00 0.00 0.00 0.00 0.00 0.00 0.00 0.00 0.00 0.00 0.00 0.00 0.00 0.00 0.00 0.00 0.00 0.00 0.00 0.00 0.00 0.00 0.00 0.01 0.02 0.02 0.01 0.01 0.00 0.00 0.00 0.00 0.00 0.00 0.00 0.00 0.00 0.00 0.00 0.01 0.00 0.00 0.00 0.00 0.00 0.00 0.01 0.01
0.00 0.00 0.00 0.00 0.00 0.00 0.00 0.00 0.00 0.00 0.00 0.00 0.00 0.00 0.00 0.00 0.00 0.00 0.00 0.00 0.00 0.00 0.00 0.00 0.00 0.01 0.02 0.01 0.01 0.01 0.00 0.00 0.00 0.00 0.00 0.00 0.01 0.00 0.00 0.00 0.00 0.00 0.00 0.00 0.00 0.00 0.00 0.00 0.00
0.00 0.00 0.00 0.00 0.00 0.00 0.00 0.00 0.00 0.00 0.00 0.00 0.00 0.00 0.00 0.00 0.00 0.00 0.00 0.00 0.00 0.00 0.00 0.00 0.00 0.01 0.02 0.02 0.01 0.01 0.00 0.00 0.00 0.00 0.00 0.00 0.02 0.02 0.01 0.00 0.00 0.00 0.00 0.00 0.00 0.00 0.00 0.00 0.00
0.00 0.00 0.00 0.00 0.00 0.00 0.00 0.00 0.00 0.00 0.00 0.00 0.00 0.00 0.00 0.00 0.00 0.00 0.00 0.00 0.00 0.00 0.00 0.00 0.00 0.01 0.01 0.01 0.01 0.01 0.00 0.00 0.00 0.00 0.00 0.00 0.02 0.03 0.02 0.00 0.00 0.00 0.00 0.00 0.00 0.00 0.00 0.00 0.00
0.00 0.00 0.00 0.00 0.00 0.00 0.00 0.00 0.00 0.00 0.00 0.00 0.00 0.00 0.00 0.00 0.00 0.00 0.00 0.00 0.00 0.00 0.00 0.00 0.00 0.00 0.01 0.01 0.01 0.00 0.00 0.00 0.00 0.00 0.00 0.01 0.02 0.03 0.02 0.00 0.00 0.00 0.00 0.00 0.00 0.00 0.00 0.00 0.00
0.00 0.00 0.00 0.00 0.00 0.00 0.00 0.00 0.00 0.00 0.00 0.00 0.00 0.00 0.00 0.00 0.00 0.00 0.00 0.00 0.00 0.00 0.00 0.00 0.00 0.00 0.00 0.01 0.01 0.00 0.00 0.00 0.00 0.00 0.00 0.00 0.01 0.02 0.02 0.00 0.00 0.00 0.00 0.00 0.00 0.00 0.00 0.00 0.00
0.00 0.00 0.00 0.00 0.00 0.00 0.00 0.00 0.00 0.00 0.00 0.00 0.00 0.00 0.00 0.00 0.00 0.00 0.00 0.00 0.00 0.00 0.00 0.00 0.00 0.00 0.00 0.00 0.00 0.00 0.00 0.00 0.00 0.00 0.00 0.00 0.00 0.00 0.01 0.00 0.00 0.00 0.00 0.00 0.00 0.00 0.00 0.00 0.00
0.00 0.00 0.00 0.00 0.00 0.00 0.00 0.00 0.00 0.00 0.00 0.00 0.00 0.00 0.00 0.00 0.00 0.00 0.00 0.00 0.00 0.00 0.00 0.00 0.00 0.00 0.00 0.00 0.00 0.00 0.00 0.00 0.00 0.00 0.00 0.00 0.00 0.00 0.00 0.00 0.00 0.00 0.00 0.00 0.00 0.00 0.00 0.00 0.00
0.00 0.00 0.00 0.00 0.00 0.00 0.00 0.00 0.00 0.00 0.00 0.00 0.00 0.00 0.00 0.00 0.00 0.00 0.00 0.00 0.00 0.00 0.00 0.00 0.00 0.00 0.00 0.00 0.00 0.00 0.00 0.00 0.00 0.00 0.00 0.00 0.00 0.00 0.00 0.00 0.00 0.00 0.00 0.00 0.00 0.00 0.00 0.00 0.00
0.00 0.00 0.00 0.00 0.00 0.00 0.00 0.00 0.00 0.00 0.00 0.00 0.00 0.00 0.00 0.00 0.00 0.00 0.00 0.00 0.00 0.00 0.00 0.00 0.00 0.00 0.00 0.00 0.00 0.00 0.00 0.00 0.00 0.00 0.00 0.00 0.00 0.00 0.00 0.00 0.00 0.00 0.00 0.00 0.00 0.00 0.00 0.00 0.00
0.00 0.00 0.00 0.00 0.00 0.00 0.00 0.00 0.00 0.00 0.00 0.00 0.00 0.00 0.00 0.00 0.00 0.00 0.00 0.00 0.00 0.00 0.00 0.00 0.00 0.00 0.00 0.00 0.00 0.00 0.00 0.00 0.00 0.00 0.00 0.00 0.00 0.00 0.00 0.00 0.00 0.00 0.00 0.00 0.00 0.00 0.00 0.00 0.00
0.00 0.00 0.00 0.00 0.00 0.00 0.00 0.00 0.00 0.00 0.00 0.00 0.00 0.00 0.00 0.00 0.00 0.00 0.00 0.00 0.00 0.00 0.00 0.00 0.00 0.00 0.00 0.00 0.00 0.00 0.00 0.00 0.00 0.00 0.00 0.00 0.00 0.00 0.00 0.00 0.00 0.00 0.00 0.00 0.00 0.00 0.00 0.00 0.00
0.01 0.00 0.00 0.00 0.00 0.00 0.00 0.00 0.00 0.00 0.00 0.00 0.00 0.00 0.00 0.00 0.00 0.00 0.00 0.00 0.00 0.00 0.00 0.00 0.00 0.00 0.00 0.00 0.00 0.00 0.00 0.00 0.00 0.00 0.00 0.00 0.00 0.00 0.00 0.00 0.00 0.00 0.00 0.00 0.00 0.00 0.00 0.00 0.00
0.00 0.00 0.00 0.00 0.00 0.00 0.00 0.00 0.00 0.00 0.00 0.00 0.00 0.00 0.00 0.00 0.00 0.00 0.00 0.00 0.00 0.00 0.00 0.00 0.00 0.00 0.00 0.00 0.00 0.00 0.00 0.00 0.00 0.00 0.00 0.00 0.00 0.00 0.00 0.00 0.00 0.00 0.00 0.00 0.00 0.00 0.00 0.00 0.00
0.01 0.01 0.01 0.00 0.00 0.00 0.00 0.00 0.00 0.00 0.00 0.00 0.00 0.00 0.00 0.00 0.00 0.00 0.00 0.00 0.00 0.00 0.00 0.00 0.00 0.00 0.00 0.00 0.00 0.00 0.00 0.00 0.00 0.00 0.00 0.00 0.00 0.00 0.00 0.00 0.00 0.00 0.00 0.00 0.00 0.00 0.00 0.00 0.00
0.04 0.04 0.02 0.00 0.00 0.00 0.00 0.00 0.00 0.00 0.00 0.00 0.00 0.00 0.00 0.00 0.00 0.00 0.00 0.00 0.00 0.00 0.00 0.00 0.00 0.00 0.00 0.00 0.00 0.00 0.00 0.00 0.00 0.00 0.00 0.00 0.00 0.00 0.00 0.00 0.00 0.00 0.00 0.00 0.00 0.00 0.00 0.00 0.00
0.08 0.04 0.01 0.00 0.00 0.00 0.00 0.00 0.00 0.00 0.00 0.00 0.00 0.00 0.00 0.00 0.00 0.00 0.00 0.00 0.00 0.00 0.00 0.00 0.00 0.00 0.00 0.00 0.00 0.00 0.00 0.00 0.00 0.00 0.00 0.00 0.00 0.00 0.00 0.00 0.00 0.00 0.00 0.00 0.00 0.00 0.00 0.00 0.00
0.03 0.02 0.01 0.00 0.00 0.00 0.00 0.00 0.00 0.00 0.00 0.00 0.00 0.00 0.00 0.00 0.00 0.00 0.00 0.00 0.00 0.00 0.00 0.00 0.00 0.00 0.00 0.00 0.00 0.00 0.00 0.00 0.00 0.00 0.00 0.00 0.00 0.00 0.00 0.00 0.00 0.00 0.00 0.00 0.00 0.00 0.00 0.00 0.00
0.02 0.02 0.01 0.00 0.00 0.00 0.00 0.00 0.00 0.00 0.00 0.00 0.00 0.00 0.00 0.00 0.00 0.00 0.00 0.00 0.00 0.00 0.00 0.00 0.00 0.00 0.00 0.00 0.00 0.00 0.00 0.00 0.00 0.00 0.00 0.00 0.00 0.00 0.00 0.00 0.00 0.00 0.00 0.00 0.00 0.00 0.00 0.00 0.00
0.04 0.04 0.02 0.01 0.00 0.00 0.00 0.00 0.00 0.00 0.00 0.00 0.00 0.00 0.00 0.00 0.00 0.00 0.00 0.00 0.00 0.00 0.00 0.00 0.00 0.00 0.00 0.00 0.00 0.00 0.00 0.00 0.00 0.00 0.00 0.00 0.00 0.00 0.00 0.00 0.00 0.00 0.00 0.00 0.00 0.00 0.00 0.00 0.00
0.06 0.05 0.03 0.01 0.00 0.00 0.00 0.00 0.00 0.00 0.00 0.00 0.00 0.00 0.00 0.00 0.00 0.00 0.00 0.00 0.00 0.00 0.00 0.00 0.00 0.00 0.00 0.00 0.00 0.00 0.00 0.00 0.00 0.00 0.00 0.00 0.00 0.00 0.00 0.00 0.00 0.00 0.00 0.00 0.00 0.00 0.00 0.00 0.00
0.07 0.04 0.04 0.03 0.02 0.01 0.00 0.00 0.00 0.00 0.00 0.00 0.00 0.00 0.00 0.00 0.00 0.00 0.00 0.00 0.00 0.00 0.00 0.00 0.00 0.00 0.00 0.00 0.00 0.00 0.00 0.00 0.00 0.00 0.00 0.00 0.00 0.00 0.00 0.00 0.00 0.00 0.00 0.00 0.00 0.00 0.00 0.00 0.00
0.06 0.03 0.05 0.05 0.04 0.02 0.01 0.00 0.00 0.00 0.00 0.00 0.00 0.00 0.00 0.00 0.00 0.00 0.00 0.00 0.00 0.00 0.00 0.00 0.00 0.00 0.00 0.00 0.00 0.00 0.00 0.00 0.00 0.00 0.00 0.00 0.00 0.00 0.00 0.00 0.00 0.00 0.00 0.00 0.00 0.00 0.00 0.00 0.00
0.10 0.10 0.12 0.10 0.07 0.03 0.01 0.00 0.00 0.00 0.00 0.00 0.00 0.00 0.00 0.00 0.00 0.00 0.00 0.00 0.00 0.00 0.00 0.00 0.00 0.00 0.00 0.00 0.00 0.00 0.00 0.00 0.00 0.00 0.00 0.00 0.00 0.00 0.00 0.00 0.00 0.00 0.00 0.00 0.00 0.00 0.00 0.00 0.00
0.22 0.24 0.25 0.17 0.08 0.02 0.00 0.00 0.00 0.00 0.00 0.00 0.00 0.00 0.00 0.00 0.00 0.00 0.00 0.00 0.00 0.00 0.00 0.00 0.00 0.00 0.00 0.00 0.00 0.00 0.00 0.00 0.00 0.00 0.00 0.00 0.00 0.00 0.00 0.00 0.00 0.00 0.00 0.00 0.00 0.00 0.00 0.00 0.00
0.27 0.24 0.16 0.09 0.03 0.00 0.00 0.00 0.00 0.00 0.00 0.00 0.00 0.00 0.00 0.00 0.00 0.00 0.00 0.00 0.00 0.00 0.00 0.00 0.00 0.00 0.00 0.00 0.00 0.00 0.00 0.00 0.00 0.00 0.00 0.00 0.00 0.00 0.00 0.00 0.00 0.00 0.00 0.00 0.00 0.00 0.00 0.00 0.00
0.22 0.16 0.08 0.03 0.01 0.00 0.00 0.00 0.00 0.00 0.00 0.00 0.00 0.00 0.00 0.00 0.00 0.00 0.00 0.00 0.00 0.00 0.00 0.00 0.00 0.00 0.00 0.00 0.00 0.00 0.00 0.00 0.00 0.00 0.00 0.00 0.00 0.00 0.00 0.00 0.00 0.00 0.00 0.00 0.00 0.00 0.00 0.00 0.00
0.18 0.10 0.06 0.03 0.02 0.01 0.00 0.00 0.00 0.00 0.00 0.00 0.00 0.00 0.00 0.00 0.00 0.00 0.00 0.00 0.00 0.00 0.00 0.00 0.00 0.00 0.00 0.00 0.00 0.00 0.00 0.00 0.00 0.00 0.00 0.00 0.00 0.00 0.00 0.00 0.00 0.00 0.00 0.00 0.00 0.00 0.00 0.00 0.00
0.13 0.07 0.04 0.02 0.01 0.01 0.00 0.00 0.00 0.00 0.00 0.00 0.00 0.00 0.00 0.00 0.00 0.00 0.00 0.00 0.00 0.00 0.00 0.00 0.00 0.00 0.00 0.00 0.00 0.00 0.00 0.00 0.00 0.00 0.00 0.00 0.00 0.00 0.00 0.00 0.00 0.00 0.00 0.00 0.00 0.00 0.00 0.00 0.00
0.09 0.03 0.01 0.01 0.01 0.00 0.00 0.00 0.00 0.00 0.00 0.00 0.00 0.00 0.00 0.00 0.00 0.00 0.00 0.00 0.00 0.00 0.00 0.00 0.00 0.00 0.00 0.00 0.00 0.00 0.00 0.00 0.00 0.00 0.00 0.00 0.00 0.00 0.00 0.00 0.00 0.00 0.00 0.00 0.00 0.00 0.00 0.00 0.00
MSLP
1011.12 1011.49 1011.93 1012.34 1012.63 1012.72 1012.57 1012.22 1011.70 1011.10 1010.52 1010.02 1009.65 1009.41 1009.28 1009.22 1009.16 1009.09 1008.98 1008.86 1008.76 1008.74 1008.84 1009.09 1009.49 1010.00 1010.54 1011.07 1011.51 1011.84 1012.03 1012.12 1012.14 1012.15 1012.20 1012.32 1012.49 1012.72 1012.96 1013.18 1013.34 1013.44 1013.47 1013.46 1013.42 1013.40 1013.39 1013.42 1013.48
1011.52 1011.96 1012.41 1012.77 1012.95 1012.88 1012.58 1012.07 1011.43 1010.76 1010.15 1009.67 1009.33 1009.14 1009.05 1008.99 1008.93 1008.83 1008.68 1008.53 1008.42 1008.42 1008.55 1008.86 1009.32 1009.89 1010.49 1011.05 1011.52 1011.85 1012.05 1012.14 1012.17 1012.19 1012.24 1012.35 1012.52 1012.73 1012.96 1013.16 1013.32 1013.42 1013.47 1013.49 1013.49 1013.50 1013.52 1013.57 1013.62
1011.98 1012.45 1012.87 1013.13 1013.17 1012.94 1012.48 1011.83 1011.10 1010.39 1009.78 1009.33 1009.04 1008.89 1008.82 1008.77 1008.69 1008.55 1008.38 1008.20 1008.09 1008.10 1008.28 1008.63 1009.15 1009.76 1010.40 1010.99 1011.47 1011.82 1012.03 1012.13 1012.17 1012.21 1012.27 1012.38 1012.55 1012.74 1012.95 1013.13 1013.27 1013.36 1013.43 1013.46 1013.50 1013.54 1013.58 1013.64 1013.68
1012.46 1012.91 1013.24 1013.39 1013.27 1012.90 1012.30 1011.55 1010.77 1010.05 1009.46 1009.05 1008.81 1008.69 1008.64 1008.59 1008.49 1008.32 1008.12 1007.94 1007.83 1007.86 1008.08 1008.47 1009.02 1009.66 1010.32 1010.91 1011.40 1011.75 1011.97 1012.08 1012.15 1012.21 1012.29 1012.42 1012.58 1012.76 1012.94 1013.09 1013.21 1013.29 1013.35 1013.40 1013.45 1013.51 1013.57 1013.62 1013.66
1012.87 1013.25 1013.48 1013.49 1013.24 1012.74 1012.05 1011.26 1010.46 1009.77 1009.24 1008.88 1008.69 1008.60 1008.55 1008.49 1008.36 1008.17 1007.96 1007.77 1007.68 1007.74 1007.99 1008.41 1008.98 1009.62 1010.27 1010.85 1011.31 1011.65 1011.87 1012.01 1012.10 1012.19 1012.30 1012.44 1012.61 1012.78 1012.94 1013.06 1013.15 1013.21 1013.26 1013.30 1013.35 1013.41 1013.48 1013.52 1013.55
1013.14 1013.42 1013.53 1013.41 1013.05 1012.48 1011.76 1010.97 1010.22 1009.60 1009.14 1008.84 1008.68 1008.61 1008.56 1008.47 1008.31 1008.11 1007.89 1007.72 1007.65 1007.74 1008.02 1008.46 1009.02 1009.64 1010.25 1010.78 1011.21 1011.52 1011.74 1011.88 1012.00 1012.13 1012.28 1012.45 1012.62 1012.79 1012.92 1013.02 1013.08 1013.11 1013.13 1013.16 1013.20 1013.26 1013.31 1013.34 1013.34
1013.22 1013.39 1013.37 1013.15 1012.73 1012.13 1011.43 1010.72 1010.06 1009.53 1009.14 1008.91 1008.78 1008.70 1008.62 1008.50 1008.32 1008.09 1007.88 1007.73 1007.70 1007.82 1008.11 1008.55 1009.09 1009.67 1010.21 1010.69 1011.06 1011.34 1011.54 1011.70 1011.85 1012.01 1012.20 1012.39 1012.59 1012.75 1012.87 1012.94 1012.97 1012.97 1012.97 1012.97 1013.00 1013.03 1013.07 1013.09 1013.07
1013.11 1013.14 1013.02 1012.73 1012.29 1011.72 1011.10 1010.49 1009.95 1009.53 1009.23 1009.04 1008.92 1008.82 1008.70 1008.53 1008.31 1008.08 1007.87 1007.75 1007.75 1007.90 1008.20 1008.63 1009.13 1009.64 1010.12 1010.52 1010.84 1011.08 1011.27 1011.44 1011.61 1011.81 1012.04 1012.27 1012.48 1012.64 1012.76 1012.80 1012.81 1012.78 1012.76 1012.74 1012.75 1012.76 1012.78 1012.78 1012.74
1012.83 1012.74 1012.53 1012.20 1011.77 1011.27 1010.76 1010.28 1009.88 1009.56 1009.34 1009.17 1009.04 1008.90 1008.72 1008.50 1008.25 1008.01 1007.81 1007.71 1007.74 1007.91 1008.21 1008.61 1009.07 1009.52 1009.92 1010.26 1010.52 1010.73 1010.91 1011.09 1011.30 1011.53 1011.79 1012.05 1012.27 1012.45 1012.55 1012.59 1012.58 1012.54 1012.50 1012.47 1012.46 1012.46 1012.46 1012.44 1012.38
1012.46 1012.25 1011.97 1011.61 1011.22 1010.81 1010.42 1010.08 1009.80 1009.58 1009.41 1009.25 1009.09 1008.89 1008.66 1008.39 1008.10 1007.85 1007.66 1007.58 1007.62 1007.80 1008.09 1008.46 1008.86 1009.25 1009.59 1009.87 1010.10 1010.30 1010.48 1010.69 1010.92 1011.19 1011.48 1011.76 1012.00 1012.18 1012.28 1012.32 1012.30 1012.26 1012.21 1012.18 1012.16 1012.15 1012.14 1012.11 1012.03
1012.07 1011.75 1011.40 1011.04 1010.69 1010.37 1010.10 1009.88 1009.70 1009.55 1009.40 1009.23 1009.03 1008.78 1008.49 1008.17 1007.87 1007.61 1007.43 1007.36 1007.42 1007.59 1007.85 1008.18 1008.53 1008.86 1009.16 1009.41 1009.62 1009.82 1010.03 1010.26 1010.53 1010.83 1011.14 1011.43 1011.68 1011.86 1011.97 1012.02 1012.01 1011.98 1011.94 1011.91 1011.89 1011.87 1011.85 1011.80 1011.70
1011.72 1011.31 1010.90 1010.53 1010.22 1009.97 1009.79 1009.65 1009.54 1009.43 1009.28 1009.09 1008.85 1008.56 1008.23 1007.89 1007.58 1007.33 1007.17 1007.11 1007.16 1007.31 1007.54 1007.82 1008.11 1008.40 1008.67 1008.91 1009.14 1009.37 1009.62 1009.89 1010.19 1010.52 1010.84 1011.13 1011.38 1011.57 1011.68 1011.74 1011.75 1011.73 1011.71 1011.69 1011.68 1011.66 1011.62 1011.55 1011.43
1011.48 1010.98 1010.52 1010.13 1009.84 1009.64 1009.51 1009.41 1009.33 1009.22 1009.06 1008.84 1008.57 1008.26 1007.92 1007.60 1007.31 1007.09 1006.95 1006.90 1006.94 1007.06 1007.24 1007.46 1007.71 1007.96 1008.22 1008.48 1008.75 1009.02 1009.33 1009.65 1009.98 1010.32 1010.64 1010.93 1011.17 1011.36 1011.48 1011.55 1011.58 1011.59 1011.59 1011.58 1011.57 1011.54 1011.48 1011.38 1011.23
1011.33 1010.77 1010.27 1009.86 1009.57 1009.38 1009.25 1009.16 1009.06 1008.92 1008.74 1008.50 1008.21 1007.91 1007.62 1007.34 1007.12 1006.96 1006.85 1006.82 1006.84 1006.92 1007.04 1007.20 1007.40 1007.64 1007.90 1008.19 1008.52 1008.86 1009.22 1009.59 1009.96 1010.31 1010.62 1010.90 1011.12 1011.30 1011.42 1011.51 1011.56 1011.60 1011.62 1011.62 1011.60 1011.55 1011.47 1011.33 1011.14
1011.27 1010.66 1010.14 1009.72 1009.41 1009.20 1009.04 1008.91 1008.75 1008.57 1008.34 1008.08 1007.82 1007.56 1007.34 1007.17 1007.04 1006.96 1006.92 1006.91 1006.92 1006.95 1007.01 1007.12 1007.27 1007.49 1007.77 1008.11 1008.50 1008.92 1009.35 1009.77 1010.16 1010.51 1010.81 1011.05 1011.26 1011.41 1011.54 1011.64 1011.71 1011.77 1011.80 1011.81 1011.78 1011.71 1011.59 1011.41 1011.18
1011.24 1010.63 1010.10 1009.68 1009.35 1009.09 1008.88 1008.66 1008.43 1008.17 1007.90 1007.64 1007.41 1007.23 1007.12 1007.08 1007.09 1007.13 1007.16 1007.19 1007.19 1007.18 1007.19 1007.23 1007.35 1007.56 1007.86 1008.25 1008.71 1009.20 1009.69 1010.15 1010.56 1010.90 1011.18 1011.40 1011.57 1011.71 1011.83 1011.93 1012.03 1012.10 1012.15 1012.15 1012.10 1012.01 1011.84 1011.63 1011.36
1011.22 1010.64 1010.13 1009.71 1009.36 1009.05 1008.75 1008.44 1008.11 1007.76 1007.44 1007.17 1006.99 1006.91 1006.94 1007.06 1007.23 1007.40 1007.53 1007.61 1007.62 1007.58 1007.54 1007.54 1007.62 1007.82 1008.14 1008.58 1009.10 1009.66 1010.21 1010.71 1011.13 1011.46 1011.70 1011.88 1012.02 1012.14 1012.25 1012.36 1012.47 1012.56 1012.61 1012.61 1012.55 1012.43 1012.23 1011.98 1011.67
1011.17 1010.65 1010.19 1009.79 1009.42 1009.06 1008.66 1008.24 1007.78 1007.34 1006.96 1006.68 1006.55 1006.59 1006.77 1007.06 1007.40 1007.72 1007.97 1008.11 1008.15 1008.10 1008.02 1007.98 1008.04 1008.23 1008.57 1009.05 1009.62 1010.24 1010.83 1011.36 1011.78 1012.09 1012.31 1012.45 1012.56 1012.65 1012.75 1012.87 1012.99 1013.09 1013.15 1013.15 1013.08 1012.94 1012.72 1012.44 1012.12
1011.07 1010.64 1010.25 1009.88 1009.50 1009.07 1008.59 1008.04 1007.46 1006.91 1006.46 1006.18 1006.10 1006.24 1006.57 1007.03 1007.55 1008.03 1008.40 1008.62 1008.70 1008.66 1008.56 1008.50 1008.53 1008.72 1009.08 1009.59 1010.20 1010.86 1011.48 1012.03 1012.45 1012.74 1012.93 1013.04 1013.11 1013.19 1013.28 1013.39 1013.52 1013.63 1013.71 1013.71 1013.64 1013.49 1013.26 1012.98 1012.64
1010.91 1010.59 1010.27 1009.94 1009.55 1009.07 1008.49 1007.82 1007.12 1006.47 1005.96 1005.66 1005.62 1005.85 1006.32 1006.94 1007.63 1008.26 1008.76 1009.08 1009.21 1009.20 1009.11 1009.03 1009.06 1009.25 1009.61 1010.14 1010.78 1011.46 1012.10 1012.65 1013.07 1013.35 1013.51 1013.59 1013.64 1013.69 1013.77 1013.89 1014.02 1014.14 1014.23 1014.24 1014.18 1014.03 1013.81 1013.53 1013.20
1010.69 1010.45 1010.21 1009.91 1009.51 1008.99 1008.32 1007.56 1006.75 1006.02 1005.45 1005.13 1005.13 1005.44 1006.02 1006.79 1007.62 1008.40 1009.03 1009.45 1009.65 1009.68 1009.62 1009.55 1009.58 1009.77 1010.14 1010.67 1011.32 1012.00 1012.65 1013.20 1013.61 1013.87 1014.01 1014.07 1014.10 1014.14 1014.21 1014.32 1014.45 1014.58 1014.66 1014.69 1014.63 1014.50 1014.29 1014.03 1013.72
1010.37 1010.20 1010.01 1009.74 1009.33 1008.77 1008.05 1007.22 1006.35 1005.55 1004.95 1004.63 1004.66 1005.04 1005.72 1006.60 1007.56 1008.47 1009.21 1009.73 1010.02 1010.11 1010.09 1010.05 1010.09 1010.28 1010.65 1011.17 1011.81 1012.49 1013.13 1013.67 1014.06 1014.31 1014.44 1014.48 1014.50 1014.52 1014.58 1014.67 1014.80 1014.92 1015.00 1015.03 1014.98 1014.86 1014.67 1014.42 1014.14
1009.93 1009.79 1009.62 1009.36 1008.97 1008.39 1007.65 1006.79 1005.90 1005.09 1004.48 1004.18 1004.25 1004.69 1005.44 1006.42 1007.48 1008.49 1009.34 1009.96 1010.34 1010.50 1010.53 1010.53 1010.60 1010.79 1011.15 1011.66 1012.27 1012.93 1013.55 1014.07 1014.45 1014.69 1014.81 1014.84 1014.85 1014.85 1014.89 1014.97 1015.07 1015.17 1015.24 1015.26 1015.21 1015.09 1014.91 1014.68 1014.41
1009.33 1009.19 1009.02 1008.77 1008.38 1007.83 1007.11 1006.28 1005.42 1004.65 1004.09 1003.83 1003.95 1004.44 1005.25 1006.29 1007.42 1008.51 1009.45 1010.15 1010.62 1010.86 1010.97 1011.01 1011.10 1011.31 1011.66 1012.14 1012.73 1013.35 1013.94 1014.43 1014.80 1015.03 1015.15 1015.18 1015.17 1015.16 1015.18 1015.23 1015.30 1015.36 1015.40 1015.39 1015.32 1015.19 1015.01 1014.78 1014.53
1008.54 1008.37 1008.19 1007.95 1007.59 1007.09 1006.45 1005.70 1004.93 1004.26 1003.78 1003.60 1003.78 1004.31 1005.16 1006.23 1007.40 1008.54 1009.54 1010.32 1010.87 1011.20 1011.38 1011.49 1011.62 1011.84 1012.18 1012.64 1013.18 1013.76 1014.32 1014.79 1015.14 1015.36 1015.47 1015.50 1015.49 1015.47 1015.46 1015.47 1015.49 1015.51 1015.50 1015.45 1015.35 1015.19 1014.99 1014.76 1014.49
1007.56 1007.36 1007.17 1006.94 1006.64 1006.23 1005.70 1005.09 1004.47 1003.93 1003.58 1003.50 1003.74 1004.31 1005.17 1006.25 1007.43 1008.58 1009.62 1010.46 1011.08 1011.49 1011.75 1011.94 1012.12 1012.36 1012.70 1013.13 1013.65 1014.18 1014.70 1015.13 1015.47 1015.68 1015.80 1015.83 1015.81 1015.77 1015.73 1015.70 1015.67 1015.64 1015.57 1015.47 1015.32 1015.12 1014.89 1014.63 1014.35
1006.45 1006.21 1006.02 1005.83 1005.60 1005.31 1004.93 1004.50 1004.06 1003.69 1003.48 1003.50 1003.80 1004.39 1005.24 1006.29 1007.44 1008.59 1009.64 1010.52 1011.20 1011.70 1012.06 1012.32 1012.57 1012.85 1013.19 1013.62 1014.09 1014.59 1015.07 1015.47 1015.79 1016.00 1016.11 1016.14 1016.12 1016.06 1016.00 1015.92 1015.84 1015.74 1015.62 1015.45 1015.25 1015.01 1014.75 1014.45 1014.14
1005.27 1005.02 1004.83 1004.70 1004.56 1004.40 1004.19 1003.95 1003.70 1003.51 1003.44 1003.56 1003.91 1004.50 1005.32 1006.32 1007.41 1008.52 1009.56 1010.47 1011.21 1011.80 1012.25 1012.61 1012.93 1013.27 1013.64 1014.06 1014.51 1014.98 1015.41 1015.79 1016.09 1016.29 1016.39 1016.42 1016.39 1016.33 1016.23 1016.11 1015.98 1015.83 1015.64 1015.42 1015.17 1014.89 1014.59 1014.26 1013.92
1004.14 1003.89 1003.73 1003.65 1003.61 1003.57 1003.53 1003.46 1003.40 1003.37 1003.42 1003.62 1004.00 1004.57 1005.34 1006.26 1007.28 1008.34 1009.35 1010.28 1011.08 1011.76 1012.31 1012.78 1013.19 1013.60 1014.01 1014.44 1014.88 1015.32 1015.72 1016.07 1016.34 1016.53 1016.63 1016.66 1016.62 1016.53 1016.41 1016.26 1016.08 1015.87 1015.63 1015.37 1015.08 1014.76 1014.42 1014.07 1013.71
1003.17 1002.93 1002.80 1002.76 1002.80 1002.87 1002.96 1003.04 1003.12 1003.22 1003.38 1003.64 1004.02 1004.56 1005.26 1006.10 1007.04 1008.04 1009.03 1009.98 1010.84 1011.60 1012.26 1012.84 1013.36 1013.84 1014.30 1014.75 1015.19 1015.61 1015.99 1016.31 1016.55 1016.72 1016.81 1016.82 1016.77 1016.66 1016.51 1016.32 1016.10 1015.85 1015.57 1015.27 1014.95 1014.61 1014.25 1013.88 1013.50
Thickness
5725 5734 5739 5730 5711 5703 5707 5729 5747 5749 5752 5757 5762 5762 5761 5761 5754 5742 5767 5779 5780 5776 5769 5764 5760 5756 5753 5750 5747 5743 5740 5738 5737 5736 5736 5735 5735 5735 5735 5734 5733 5733 5732 5731 5731 5730 5730 5731 5731
5721 5728 5726 5716 5697 5689 5708 5730 5741 5745 5750 5759 5761 5764 5764 5766 5770 5767 5767 5773 5776 5774 5767 5762 5758 5754 5751 5747 5744 5741 5738 5736 5735 5734 5733 5732 5732 5732 5732 5731 5730 5729 5728 5727 5726 5726 5726 5726 5725
5718 5723 5708 5700 5695 5694 5709 5732 5737 5744 5752 5753 5753 5764 5763 5755 5767 5766 5766 5771 5772 5770 5767 5761 5755 5752 5748 5745 5742 5739 5736 5734 5733 5731 5730 5730 5729 5729 5729 5728 5726 5725 5724 5723 5723 5722 5722 5721 5721
5709 5706 5703 5692 5690 5710 5721 5729 5736 5736 5742 5751 5752 5750 5756 5760 5763 5764 5767 5769 5768 5767 5764 5758 5754 5750 5746 5743 5740 5737 5734 5732 5730 5729 5728 5727 5727 5727 5726 5724 5723 5722 5721 5721 5720 5719 5719 5718 5718
5700 5690 5682 5682 5695 5717 5730 5734 5733 5727 5731 5743 5747 5742 5740 5758 5765 5765 5764 5765 5765 5764 5761 5755 5752 5748 5745 5742 5738 5735 5732 5730 5728 5726 5725 5724 5724 5724 5723 5721 5720 5719 5719 5718 5718 5717 5716 5716 5715
5682 5684 5671 5673 5694 5717 5726 5732 5729 5724 5730 5740 5743 5739 5733 5753 5757 5759 5761 5760 5763 5761 5758 5752 5749 5746 5743 5740 5737 5734 5731 5728 5726 5724 5722 5721 5721 5721 5720 5718 5717 5716 5716 5716 5715 5714 5713 5713 5712
5671 5669 5669 5678 5689 5706 5719 5726 5722 5721 5725 5733 5741 5733 5729 5745 5753 5757 5757 5757 5759 5758 5755 5749 5746 5743 5740 5737 5735 5732 5729 5726 5724 5721 5720 5718 5717 5716 5715 5714 5713 5713 5713 5712 5711 5710 5709 5708 5708
5676 5667 5666 5675 5682 5696 5717 5721 5723 5720 5722 5738 5743 5729 5723 5742 5752 5752 5752 5752 5753 5753 5752 5749 5746 5742 5739 5735 5733 5730 5728 5725 5722 5720 5718 5715 5714 5713 5712 5711 5710 5709 5709 5708 5707 5706 5705 5704 5703
5671 5656 5658 5674 5684 5698 5713 5711 5719 5727 5725 5730 5738 5738 5739 5749 5750 5746 5743 5743 5744 5747 5749 5749 5746 5744 5740 5736 5733 5730 5726 5723 5721 5718 5716 5714 5712 5711 5710 5707 5706 5705 5704 5704 5703 5702 5702 5701 5701
5658 5649 5665 5685 5694 5700 5707 5706 5712 5714 5713 5719 5729 5739 5744 5746 5745 5741 5738 5737 5738 5740 5744 5745 5745 5743 5740 5738 5733 5729 5726 5723 5720 5718 5716 5713 5711 5710 5707 5703 5702 5701 5701 5700 5699 5699 5698 5698 5698
5656 5655 5670 5684 5695 5699 5698 5701 5709 5704 5702 5712 5717 5726 5734 5738 5738 5737 5739 5742 5743 5743 5743 5743 5742 5741 5739 5736 5733 5730 5727 5724 5720 5719 5717 5713 5711 5708 5705 5702 5700 5698 5697 5696 5696 5695 5694 5694 5694
5652 5662 5670 5678 5689 5690 5691 5695 5697 5700 5707 5719 5723 5728 5731 5730 5731 5734 5738 5743 5745 5745 5743 5742 5741 5739 5737 5735 5731 5729 5726 5723 5720 5717 5714 5712 5708 5705 5702 5700 5698 5696 5695 5693 5692 5691 5690 5690 5690
5645 5656 5667 5676 5682 5684 5687 5686 5690 5697 5710 5717 5721 5725 5726 5727 5730 5734 5739 5742 5743 5743 5742 5742 5740 5738 5735 5732 5729 5726 5724 5721 5718 5715 5710 5707 5703 5700 5698 5696 5694 5692 5690 5688 5686 5684 5683 5683 5682
5643 5649 5657 5668 5675 5678 5677 5681 5685 5696 5708 5710 5716 5721 5725 5725 5727 5728 5731 5734 5736 5738 5739 5740 5738 5736 5734 5730 5726 5722 5720 5717 5714 5710 5706 5702 5698 5695 5692 5689 5687 5685 5683 5681 5679 5677 5675 5674 5674
5634 5635 5645 5659 5667 5672 5670 5668 5682 5699 5703 5704 5712 5719 5721 5722 5722 5722 5723 5725 5728 5731 5734 5735 5734 5733 5731 5728 5723 5720 5716 5713 5709 5704 5700 5695 5692 5688 5685 5682 5679 5677 5675 5673 5670 5668 5666 5665 5664
5618 5618 5624 5650 5660 5666 5657 5655 5686 5700 5700 5703 5711 5715 5716 5716 5717 5717 5718 5720 5724 5726 5727 5729 5729 5728 5726 5723 5720 5715 5711 5707 5702 5696 5692 5687 5684 5681 5678 5673 5670 5668 5665 5662 5659 5657 5655 5653 5653
5599 5608 5621 5637 5655 5658 5654 5657 5684 5696 5698 5702 5707 5711 5712 5710 5711 5710 5713 5715 5719 5721 5722 5722 5724 5722 5720 5716 5712 5707 5701 5696 5690 5685 5681 5677 5673 5671 5668 5663 5659 5656 5654 5650 5648 5645 5643 5641 5641
5595 5608 5618 5628 5646 5651 5651 5660 5681 5690 5694 5698 5703 5708 5709 5706 5704 5704 5706 5709 5713 5716 5717 5717 5717 5715 5712 5707 5701 5695 5688 5682 5677 5672 5668 5665 5662 5659 5656 5652 5648 5645 5641 5638 5635 5632 5631 5629 5629
5591 5602 5610 5627 5644 5646 5649 5659 5675 5685 5688 5693 5699 5704 5705 5701 5699 5699 5700 5702 5704 5707 5708 5709 5708 5706 5702 5696 5689 5681 5674 5668 5664 5660 5657 5653 5650 5647 5643 5640 5636 5632 5629 5626 5623 5620 5618 5616 5615
5572 5584 5600 5621 5642 5645 5647 5657 5674 5683 5689 5696 5700 5703 5701 5696 5692 5691 5693 5694 5695 5697 5699 5700 5698 5696 5692 5687 5680 5673 5665 5658 5654 5649 5646 5642 5639 5635 5632 5627 5624 5620 5617 5613 5609 5606 5603 5601 5599
5562 5576 5591 5608 5634 5645 5641 5643 5662 5682 5693 5699 5703 5706 5701 5696 5687 5684 5683 5684 5685 5687 5689 5689 5687 5685 5681 5676 5670 5663 5656 5650 5644 5639 5635 5631 5627 5623 5620 5616 5612 5608 5604 5599 5595 5592 5589 5586 5585
5555 5582 5592 5604 5615 5620 5629 5623 5659 5683 5688 5692 5697 5699 5694 5692 5685 5679 5676 5675 5676 5678 5679 5679 5677 5674 5670 5666 5661 5654 5646 5639 5635 5630 5626 5622 5617 5612 5608 5604 5600 5596 5592 5587 5583 5580 5575 5572 5568
5558 5582 5591 5600 5610 5616 5629 5626 5652 5684 5683 5687 5691 5693 5689 5687 5680 5674 5670 5668 5668 5669 5669 5668 5666 5663 5660 5656 5650 5643 5636 5631 5626 5622 5617 5612 5607 5601 5596 5593 5590 5586 5581 5576 5572 5567 5562 5557 5551
5556 5570 5583 5594 5602 5599 5622 5625 5645 5677 5686 5688 5688 5687 5684 5681 5674 5667 5663 5661 5660 5659 5659 5657 5654 5651 5648 5643 5638 5632 5626 5620 5615 5609 5605 5600 5596 5590 5586 5583 5579 5575 5570 5565 5560 5554 5548 5542 5536
5544 5557 5572 5579 5584 5598 5631 5630 5648 5680 5695 5696 5689 5683 5679 5674 5667 5660 5656 5654 5652 5650 5649 5647 5644 5640 5636 5631 5626 5620 5614 5608 5602 5597 5593 5588 5583 5578 5574 5571 5568 5563 5558 5553 5547 5540 5534 5528 5522
5551 5560 5579 5590 5590 5611 5634 5634 5661 5679 5688 5692 5687 5680 5674 5667 5661 5655 5652 5649 5646 5643 5641 5638 5634 5630 5625 5620 5614 5608 5602 5597 5592 5587 5582 5577 5572 5567 5564 5560 5555 5550 5545 5539 5533 5526 5519 5513 5506
5560 5569 5599 5617 5623 5624 5630 5649 5659 5672 5673 5677 5676 5672 5666 5662 5656 5652 5648 5644 5640 5637 5634 5630 5625 5620 5615 5609 5603 5597 5591 5586 5582 5577 5571 5566 5562 5557 5552 5547 5542 5536 5530 5524 5518 5511 5504 5498 5490
5572 5589 5600 5615 5618 5618 5630 5641 5649 5656 5661 5667 5669 5666 5662 5658 5653 5649 5644 5640 5635 5631 5626 5621 5617 5612 5605 5599 5593 5587 5581 5576 5571 5566 5560 5555 5550 5545 5539 5534 5528 5522 5515 5509 5502 5494 5487 5480 5474
5579 5592 5609 5622 5635 5633 5626 5637 5668 5667 5670 5667 5668 5666 5662 5656 5651 5646 5640 5635 5629 5623 5618 5613 5607 5601 5595 5589 5582 5576 5570 5566 5561 5555 5549 5543 5538 5531 5525 5519 5513 5506 5499 5492 5485 5478 5471 5464 5457
5591 5606 5616 5618 5629 5639 5638 5631 5667 5668 5671 5671 5668 5665 5659 5653 5648 5642 5636 5629 5621 5616 5610 5604 5598 5592 5585 5579 5572 5566 5560 5554 5549 5543 5537 5531 5524 5517 5511 5504 5497 5489 5482 5475 5468 5462 5455 5447 5438